FW7611 Weather Reports


Display with metric or nautical units.
time (UTC)temp
F
wind
direction
speed
MPH
gust
MPH
rain 1hr
in
rain 24hr
in
rain mn
in
humidity
%
barometer
mb
20260903190047 95 227 1.0 6.0 0.00 0.00 0.00 49 1019.0
20260903184551 96 198 2.0 5.0 0.00 0.00 0.00 47 1019.1
20260903183048 96 186 2.0 5.0 0.00 0.00 0.00 45 1019.3
20260903181546 98 141 1.0 4.0 0.00 0.00 0.00 45 1019.3
20260903180049 96 231 1.0 3.0 0.00 0.00 0.00 48 1019.4
20260903174544 97 37 0.0 4.0 0.00 0.00 0.00 46 1019.6
20260903173053 96 0 0.0 4.0 0.00 0.00 0.00 48 1019.6
20260903171554 92 171 1.0 3.0 0.00 0.00 0.00 51 1019.8
20260903170048 93 140 1.0 3.0 0.00 0.00 0.00 51 1020.1
20260903164547 96 178 3.0 6.0 0.00 0.00 0.00 49 1020.2
20260903163049 94 0 0.0 4.0 0.00 0.00 0.00 54 1020.3
20260903161548 94 168 0.0 3.0 0.00 0.00 0.00 54 1020.5
20260903160101 93 0 0.0 2.0 0.00 0.00 0.00 55 1020.5
20260903154543 92 315 1.0 2.0 0.00 0.00 0.00 56 1020.6
20260903153049 91 284 1.0 2.0 0.00 0.00 0.00 57 1020.8
20260903151548 90 15 0.0 3.0 0.00 0.00 0.00 61 1020.9
20260903150058 90 43 1.0 2.0 0.00 0.00 0.00 60 1020.9
20260903144544 89 300 0.0 2.0 0.00 0.00 0.00 63 1020.9
20260903143051 87 272 0.0 3.0 0.00 0.00 0.00 64 1020.7
20260903141547 87 115 0.0 2.0 0.00 0.00 0.00 67 1020.8
20260903140053 85 0 0.0 2.0 0.00 0.00 0.00 70 1020.8
20260903134555 83 111 0.0 2.0 0.00 0.00 0.00 73 1020.8
20260903133059 81 0 0.0 0.0 0.00 0.00 0.00 77 1020.8
20260903131548 80 0 0.0 0.0 0.00 0.00 0.00 79 1020.9
20260903130047 78 0 0.0 0.0 0.00 0.00 0.00 82 1020.9
20260903124551 77 352 0.0 2.0 0.00 0.00 0.00 86 1020.8
20260903123047 75 0 0.0 1.0 0.00 0.00 0.00 88 1020.8
20260903121547 74 0 0.0 0.0 0.00 0.00 0.00 90 1020.6
20260903120104 73 0 0.0 2.0 0.00 0.00 0.00 92 1020.7
20260903114540 72 0 0.0 0.0 0.00 0.00 0.00 93 1020.5
20260903113048 72 0 0.0 0.0 0.00 0.00 0.00 93 1020.3
20260903111546 72 0 0.0 0.0 0.00 0.00 0.00 93 1019.9
20260903110052 72 0 0.0 0.0 0.00 0.00 0.00 92 1020.0
20260903104551 72 0 0.0 0.0 0.00 0.00 0.00 92 1020.0
20260903103048 73 0 0.0 0.0 0.00 0.00 0.00 92 1019.9
20260903101547 72 0 0.0 0.0 0.00 0.00 0.00 92 1020.0
20260903100051 73 0 0.0 0.0 0.00 0.00 0.00 92 1020.0
20260903094559 73 0 0.0 0.0 0.00 0.00 0.00 91 1020.0
20260903093116 73 0 0.0 0.0 0.00 0.00 0.00 91 1019.8
20260903091543 74 0 0.0 0.0 0.00 0.00 0.00 90 1019.8
20260903090042 74 0 0.0 0.0 0.00 0.00 0.00 91 1019.7
20260903084547 73 0 0.0 0.0 0.00 0.00 0.00 92 1019.7
20260903083047 73 0 0.0 0.0 0.00 0.00 0.00 92 1019.5
20260903081548 73 0 0.0 0.0 0.00 0.00 0.00 92 1019.5
20260903080053 73 0 0.0 0.0 0.00 0.00 0.00 92 1019.7
20260903074601 73 0 0.0 0.0 0.00 0.00 0.00 92 1019.6
20260903073050 74 0 0.0 0.0 0.00 0.00 0.00 92 1019.3
20260903071550 74 0 0.0 0.0 0.00 0.00 0.00 91 1019.2
20260903070048 74 0 0.0 0.0 0.00 0.00 0.00 90 1019.5
20260903064543 75 0 0.0 0.0 0.00 0.00 0.00 88 1019.5
20260903063041 75 0 0.0 0.0 0.00 0.00 0.00 89 1019.2
20260903061551 75 0 0.0 0.0 0.00 0.00 0.00 89 1019.5
20260903060046 75 0 0.0 0.0 0.00 0.00 0.00 89 1019.4
20260903054553 75 0 0.0 2.0 0.00 0.00 0.00 90 1019.3
20260903053051 75 0 0.0 0.0 0.00 0.00 0.00 91 1019.5
20260903051544 75 0 0.0 2.0 0.00 0.00 0.00 90 1019.6
20260903050052 75 0 0.0 0.0 0.00 0.00 0.00 89 1019.7
20260903044554 75 0 0.0 0.0 0.00 0.00 0.00 89 1019.8
20260903043047 75 0 0.0 0.0 0.00 0.00 0.00 88 1019.5
20260903041542 76 0 0.0 2.0 0.00 0.00 0.00 87 1019.6
20260903040049 77 0 0.0 2.0 0.00 0.00 0.00 85 1019.6
20260903034551 77 0 0.0 0.0 0.00 0.00 0.00 84 1019.5
20260903033047 78 0 0.0 0.0 0.00 0.00 0.00 83 1019.7
20260903031554 78 0 0.0 0.0 0.00 0.00 0.00 83 1019.8
20260903030054 78 0 0.0 2.0 0.00 0.00 0.00 85 1019.7
20260903024548 79 0 0.0 0.0 0.00 0.00 0.00 82 1019.9
20260903023047 79 0 0.0 0.0 0.00 0.00 0.00 83 1019.9
20260903021543 79 0 0.0 0.0 0.00 0.00 0.00 81 1020.0
20260903020052 80 0 0.0 0.0 0.00 0.00 0.00 79 1020.3
20260903014555 80 0 0.0 0.0 0.00 0.00 0.00 77 1020.2
20260903013044 81 0 0.0 0.0 0.00 0.00 0.00 75 1020.2
20260903011556 82 0 0.0 0.0 0.00 0.00 0.00 73 1019.9
20260903010050 82 0 0.0 0.0 0.00 0.00 0.00 72 1019.9
20260903004550 82 0 0.0 0.0 0.00 0.00 0.00 72 1019.8
20260903003046 83 0 0.0 0.0 0.00 0.00 0.00 71 1019.6
20260903001544 84 0 0.0 0.0 0.00 0.00 0.00 69 1019.6
20260903000047 84 0 0.0 0.0 0.00 0.00 0.00 68 1019.4
20260902234554 85 0 0.0 0.0 0.00 0.00 0.00 67 1019.5
20260902233042 87 0 0.0 0.0 0.00 0.00 0.00 65 1019.2
20260902231541 89 0 0.0 2.0 0.00 0.00 0.00 61 1019.3
20260902230050 90 0 0.0 2.0 0.00 0.00 0.00 58 1019.2
20260902224551 91 293 0.0 2.0 0.00 0.00 0.00 56 1019.1
20260902223046 92 293 0.0 2.0 0.00 0.00 0.00 54 1019.1
20260902221555 93 311 0.0 2.0 0.00 0.00 0.00 51 1019.3
20260902220053 93 296 0.0 2.0 0.00 0.00 0.00 51 1019.3
20260902214547 93 286 0.0 1.0 0.00 0.00 0.00 50 1019.2
20260902213048 94 0 0.0 3.0 0.00 0.00 0.00 46 1019.3
20260902211551 93 313 0.0 2.0 0.00 0.00 0.00 49 1019.3
20260902210049 93 238 0.0 2.0 0.00 0.00 0.00 47 1019.3
20260902204548 94 360 0.0 4.0 0.00 0.00 0.00 47 1019.4
20260902203058 94 0 0.0 3.0 0.00 0.00 0.00 47 1019.5
20260902201545 93 102 0.0 2.0 0.00 0.00 0.00 47 1019.5
20260902200055 94 24 1.0 2.0 0.00 0.00 0.00 47 1019.7
20260902194544 93 37 0.0 2.0 0.00 0.00 0.00 48 1019.8
20260902193042 94 19 1.0 2.0 0.00 0.00 0.00 47 1020.0
20260902191554 94 57 0.0 4.0 0.00 0.00 0.00 45 1020.0